Home   Weather   Ocala   Past weeks

Flag for USA Past Weather in Ocala, Florida, USA — Yesterday and Last 2 Weeks

70 °F


Feels Like: 70 °F
Forecast: 53 / 71 °F
Wind: 6 mph from Northwest

Location: Ocala Municipal

Current Time: Oct 22, 2016 at 1:59:23 PM

Latest Report: Oct 22, 2016 at 1:15 PM

Visibility: 10 mi

Pressure: 30.03 "Hg

Humidity: 35%

Dew Point: 41 °F

Location of OcalaLocation

Past Weather in Ocala — Graph


Ocala Temperature Yesterday

Maximum temperature yesterday: 84 °F (at 12:50 PM)
Minimum temperature yesterday: 61 °F (at 4:15 AM)
Average temperature yesterday: 68 °F

High & Low Weather Summary for the Past Weeks

High88 °F (Oct 8, 2:50 PM)94% (Oct 8, 11:15 PM)30.23 "Hg (Oct 8, 11:15 PM)
Low46 °F (Oct 22, 4:55 AM)38% (Oct 22, 12:35 PM)29.46 "Hg (Oct 7, 2:50 PM)
Average70 °F75%30.03 "Hg
* Reported Oct 7 12:50 PM — Oct 22 12:35 PM, Ocala, Weather by CustomWeather, © 2016

Note: Actual official high and low records may vary slightly from our data, if they occured in-between our weather recording intervals... More about our weather records


Ocala Weather History for the Previous 24 Hours

Scroll right to see more
Time TempWeatherWind HumidityBarometerVisibility
12:35 PM
Sat, Oct 22
70 °FSunny.5 mph38%30.04 "Hg10 mi
11:55 AM66 °FSunny.8 mph43%30.05 "Hg10 mi
11:35 AM64 °FSunny.No wind46%30.06 "Hg10 mi
11:15 AM64 °FSunny.3 mph46%30.06 "Hg10 mi
10:55 AM63 °FSunny.6 mph49%30.06 "Hg10 mi
10:35 AM63 °FSunny.9 mph49%30.06 "Hg10 mi
10:15 AM61 °FSunny.14 mph52%30.06 "Hg10 mi
9:55 AM61 °FSunny.15 mph52%30.06 "Hg10 mi
9:35 AM57 °FSunny.12 mph59%30.05 "Hg10 mi
9:15 AM55 °FSunny.8 mph67%30.04 "Hg10 mi
8:55 AM54 °FSunny.7 mph72%30.04 "Hg10 mi
8:35 AM52 °FSunny.3 mph72%30.03 "Hg10 mi
8:15 AM48 °FSunny.3 mph71%30.02 "Hg10 mi
7:55 AM48 °FSunny.No wind71%30.00 "Hg10 mi
7:35 AM48 °FSunny.3 mph71%30.00 "Hg10 mi
7:15 AM48 °FCool.5 mph71%29.99 "Hg10 mi
6:50 AM48 °FClear.No wind71%29.98 "Hg10 mi
6:35 AM48 °FClear.No wind76%29.97 "Hg10 mi
6:15 AM48 °FClear.No wind76%29.97 "Hg10 mi
5:55 AM48 °FClear.No wind76%29.96 "Hg10 mi
5:35 AM48 °FClear.No wind82%29.95 "Hg10 mi
5:15 AM50 °FClear.No wind76%29.94 "Hg10 mi
4:55 AM46 °FClear.No wind76%29.94 "Hg10 mi
4:35 AM48 °FClear.3 mph82%29.93 "Hg10 mi
4:15 AM50 °FClear.No wind76%29.93 "Hg10 mi
3:55 AM50 °FClear.No wind76%29.93 "Hg10 mi
3:35 AM52 °FClear.No wind72%29.93 "Hg10 mi
3:15 AM52 °FClear.No wind72%29.93 "Hg10 mi
2:55 AM54 °FClear.No wind67%29.93 "Hg10 mi
2:35 AM55 °FClear.No wind63%29.93 "Hg10 mi
2:15 AM57 °FClear.No wind63%29.93 "Hg10 mi
1:55 AM57 °FClear.No wind63%29.93 "Hg10 mi
1:35 AM57 °FClear.3 mph59%29.93 "Hg10 mi
1:15 AM59 °FClear.5 mph59%29.92 "Hg10 mi
12:55 AM59 °FClear.8 mph59%29.91 "Hg10 mi
12:35 AM61 °FClear.10 mph55%29.91 "Hg10 mi
12:15 AM57 °FClear.7 mph63%29.91 "Hg10 mi
11:55 PM
Fri, Oct 21
61 °FClear.5 mph55%29.91 "Hg10 mi
11:35 PM61 °FClear.5 mph55%29.91 "Hg10 mi
11:15 PM63 °FClear.7 mph56%29.91 "Hg10 mi
10:55 PM64 °FClear.8 mph52%29.90 "Hg10 mi
10:35 PM64 °FClear.8 mph56%29.89 "Hg10 mi
10:15 PM66 °FClear.7 mph52%29.88 "Hg10 mi
9:55 PM64 °FClear.7 mph56%29.88 "Hg10 mi
9:35 PM70 °FClear.9 mph46%29.88 "Hg10 mi
9:15 PM70 °FClear.8 mph53%29.86 "Hg10 mi
8:15 PM73 °FClear.9 mph53%29.84 "Hg10 mi
7:55 PM73 °FClear.7 mph57%29.83 "Hg10 mi
6:50 PM79 °FPassing clouds.7 mph58%29.81 "Hg10 mi
5:50 PM84 °FScattered clouds.9 mph48%29.78 "Hg10 mi
4:50 PM84 °FScattered clouds.9 mph48%29.77 "Hg10 mi
3:50 PM84 °FScattered clouds.9 mph48%29.77 "Hg10 mi
2:50 PM84 °FPartly sunny.12 mph48%29.79 "Hg10 mi
1:50 PM84 °FPartly sunny.8 mph48%29.80 "Hg10 mi
Weather by CustomWeather, © 2016

See weather overviewHow to use our weather pages